Location: Beccas
(43.4309°N, 0.1528°E)
Time: 01:38:29
(UTC+00:00)

IRS-1C Rocket - Pass Details

Date: 15 October 2021
Orbit: 801 x 805 km, 98.9° (Epoch: 02 December)

Event Time Altitude Azimuth Distance (km) Brightness Sun altitude
Exits shadow 19:15:01 - 172° (S) 2,887 6.8 -22.3°
Reaches altitude 10° 19:16:19 10° 174° (S) 2,370 6.4 -22.6°
Maximum altitude 19:21:32 69° 257° (WSW) 858 4.3 -23.5°
Drops below altitude 10° 19:26:48 10° 341° (NNW) 2,389 6.9 -24.4°
Sets 19:29:10 0° 344° (NNW) 3,325 7.7 -24.9°
